Regional Weather Roundup
Issued by NWS

Home | Current Version | Previous Version | Text Only | Print | Product List | Glossary On
Versions: 1 2 3 4 5 6 7 8 9 10 11 12 13 14 15 16 17 18 19 20 21 22 23 24 25 26 27
000
ASUS45 KREV 311710
RWRNV
NEVADA REGIONAL WEATHER ROUNDUP
NATIONAL WEATHER SERVICE RENO NV
1000 AM PDT FRI OCT 31 2014

NOTE: "FAIR" INDICATES FEW OR NO CLOUDS BELOW 12,000 FEET WITH NO
SIGNIFICANT WEATHER AND/OR OBSTRUCTIONS TO VISIBILITY.

NVZ001-003-004-311800-
WESTERN NEVADA

CITY           SKY/WX    TMP DP  RH WIND       PRES   REMARKS
RENO           MOSUNNY   59  33  37 SE6       29.87F
CARSON CITY    FAIR      59  27  29 CALM      29.88F
MINDEN         FAIR      59  27  29 CALM      29.89
PYRAMID LAKE     N/A     61 N/A N/A S10         N/A
FALLON         PTSUNNY   51  28  41 CALM      29.85F
LOVELOCK       PTSUNNY   47  25  42 CALM      29.86F
HAWTHORNE      SUNNY     64  19  17 E15       29.87F
$$

NVZ002-CAZ072-073-311800-
NORTHERN AND CENTRAL SIERRA

CITY           SKY/WX    TMP DP  RH WIND       PRES   REMARKS
S. LAKE TAHOE  SUNNY     55  24  30 S25G36    29.90F
TRUCKEE        MOSUNNY   54  30  40 SW20G29   29.92F
SQUAW VLY 8000 NOT AVBL
BLUE CANYON    CLOUDY    48  40  73 S10       29.96S
MAMMOTH LAKES  FAIR      50  16  25 CALM      30.01F
BRIDGEPORT     FAIR      56  12  17 SW18G32   29.92F
$$

NVZ030-031-036-311800-
NORTHERN NEVADA

CITY           SKY/WX    TMP DP  RH WIND       PRES   REMARKS
ELKO           CLOUDY    59  24  26 VRB3      29.93F
WINNEMUCCA     CLOUDY    48  27  44 CALM      29.88F
WENDOVER       CLOUDY    48  28  46 E6        29.99F
$$

NVZ035-037-311800-
CENTRAL NEVADA

CITY           SKY/WX    TMP DP  RH WIND       PRES   REMARKS
ELY            MOSUNNY   59  28  30 SE28G36   30.03F
EUREKA           N/A     59  20  22 S20       29.99R
$$

NVZ013-014-311800-
SOUTH CENTRAL NEVADA

CITY           SKY/WX    TMP DP  RH WIND       PRES   REMARKS
TONOPAH        PTSUNNY   59  24  26 S16       29.99F
$$

NVZ017-020-022-311800-
SOUTHERN NEVADA

CITY           SKY/WX    TMP DP  RH WIND       PRES   REMARKS
LAS VEGAS      MOSUNNY   72  31  22 S3        29.90F
N. LAS VEGAS   SUNNY     70  30  22 S3        29.93F
NELLIS AFB     SUNNY     67  33  27 S5        29.93S
HENDERSON      SUNNY     74  30  19 CALM      29.96S
MERCURY        NOT AVBL
$$



USA.gov is the U.S. government's official web portal to all federal, state and local government web resources and services.